World > North America > United States > Alabama

English Village, Alabama Regional Weather

Lat: 33.49N, Lon: 86.78W
Wx Zone: ALZ024Web Search
English Village Weather Warning NWS WEATHER ALERT FOR THE ENGLISH VILLAGE, AL AREA - Issued: 407 AM CDT Sun Apr 11 2021 English Village Weather Warning  

Helpful Tip: Abbreviated, 7 Day, 14 Day Forecasts. There is a weather forecast for every taste.

Feedback


°F Click to change English Village hourly weather to Imperial units.Click to change English Village hourly weather to Metric units. °C
English Village Weather Map
UTC Time: 4/11/2021, 16:29
Your Time:

English Village, AL Regional Weather

Expires:202104111700;;391112
ASUS44 KBMX 111610
RWRAL 
             
ALABAMA REGIONAL WEATHER ROUNDUP
NATIONAL WEATHER SERVICE BIRMINGHAM AL
1100 AM CDT SUN APR 11 2021

NOTE: "FAIR" INDICATES FEW OR NO CLOUDS BELOW 12,000 FEET
WITH NO SIGNIFICANT WEATHER AND/OR OBSTRUCTIONS TO VISIBILITY.

THE REMARK "TC" DENOTES TEMPERATURE IN DEGREES CELSIUS.


ALZ015-024>026-033>036-041>044-111700-
CENTRAL ALABAMA
  
CITY           SKY/WX    TMP DP  RH WIND       PRES   REMARKS
BIRMINGHAM     SUNNY     65  44  46 W9        29.79R                  
MONTGOMERY     SUNNY     70  49  47 CALM      29.78S                  
SHELBY CO ARPT SUNNY     66  45  46 VRB5      29.77R                  
MAXWELL AFB    SUNNY     68  48  48 CALM      29.76S                  
GREENVILLE     FAIR      72  50  45 VRB5      29.77S                  
SELMA          FAIR      68  43  40 N5        29.78S                  
PRATTVILLE     FAIR      68  44  42 CALM      29.77S                  
BESSEMER       FAIR      65  46  50 N6        29.78R                  
TALLADEGA      FAIR      65  44  46 NW5       29.78R                  
PELL CITY      SUNNY     66  45  45 VRB6      29.78R                  
SYLACAUGA      PTSUNNY   65  47  53 CALM      29.78S                  
$$
 

SKY/WX - Weather  TMP - Temperature  DP - Dew Point  RH - Relative Humidity
WIND - Wind Direction/Speed PRES - Barometric Pressure VSB - Visibility
WCI - Wind Chill Index E13G22 Wind - East Wind 13 mph/Gusts of 22 mph